{"data":{"norad_id":68222,"epoch":"2026-05-25T04:29:15.864288Z","epoch_age_seconds":69570,"freshness":"FRESH","line1":"1 68222U 26053R   26145.18698917  .00011669  00000+0  36310-3 0  9991","line2":"2 68222  97.2863  20.6691 0001621  88.8028 271.3401 15.33455686 11944","mean_motion":15.33455686,"eccentricity":0.0001621,"inclination_deg":97.2863,"raan_deg":20.6691,"arg_perigee_deg":88.8028,"mean_anomaly_deg":271.3401,"bstar":0.0003631,"rev_number":1194,"period_min":93.905550264463,"perigee_km":464.4020252425,"apogee_km":466.62073604751,"semimajor_km":6843.648380645,"source":"CELESTRAK","updated_at":"2026-05-25T13:38:21.880630Z"}}